Location: Fours
(44.3167°N, 6.7000°E)
Time: 05:26:30
(UTC+00:00)

COSMO-SKYMED 1 - Pass Details

Date: 30 November 2020
Orbit: 621 x 623 km, 97.9° (Epoch: 27 January)

Event Time Altitude Azimuth Distance (km) Brightness Sun altitude
Exits shadow 17:03:41 11° 33° (NNE) 1,972 4.7 -11.9°
Maximum altitude 17:07:30 32° 96° (E) 1,082 3.3 -12.5°
Drops below altitude 10° 17:11:23 10° 160° (SSE) 1,989 5.1 -13.2°
Sets 17:13:45 0° 170° (S) 2,890 6.1 -13.6°
